Location: downtown San Diego
(32.7310°N, 117.1990°W)
Time: 17:54:14
(UTC-07:00)

USA 267 - Pass Details

Date: 19 May 2017
Orbit: 1101 x 1107 km, 123.0° (Epoch: 24 May)

Event Time Altitude Azimuth Distance (km) Brightness Sun altitude
Rises 23:21:49 0° 35° (NE) 3,920 6.5 -33.6°
Reaches altitude 10° 23:24:26 10° 28° (NNE) 2,960 5.9 -33.8°
Maximum altitude 23:30:26 41° 321° (NW) 1,556 4.3 -34.3°
Drops below altitude 10° 23:36:26 10° 255° (WSW) 2,953 5.5 -34.7°
Sets 23:39:03 0° 248° (WSW) 3,909 6.1 -34.9°
